ABS-2A (MONGOLSAT-1)

Last updated on Sun Mar 15 2026 00:02:55 GMT+0000 (Coordinated Universal Time)

1 41588U 16038A 26073.36935066 -.00000085 00000+0 00000+0 0 9992 2 41588 0.0099 156.8043 0001897 137.8648 85.0117 1.00271256 35751
UTC large
Height (km)
Speed (km/s)
/
Latitude / Longitude
Inclination (degrees)
Orbital Period (minutes)
Azimuth
Elevation
Range (km)
Doppler Factor

Next 0 passes for location: London (51.5072 / 0.1276)

Sorry there are no passes over London.